| time (UTC) | temp F | wind direction | speed knots | gust knots | rain 1hr in | rain 24hr in | rain mn in | humidity % | barometer mb |
| 20260906182619 | 100 | 133 | 3.5 | 9.6 | 0.00 | 0.00 | 0.00 | 40 | 608.0 |
| 20260906182118 | 100 | 142 | 2.6 | 9.6 | 0.00 | 0.00 | 0.00 | 40 | 584.1 |
| 20260906181617 | 99 | 300 | 0.0 | 9.6 | 0.00 | 0.00 | 0.00 | 41 | 664.3 |
| 20260906181116 | 99 | 57 | 3.5 | 9.6 | 0.00 | 0.00 | 0.00 | 41 | 405.2 |
| 20260906180615 | 99 | 100 | 2.6 | 9.6 | 0.00 | 0.00 | 0.00 | 41 | 443.1 |
| 20260906175558 | 98 | 107 | 1.7 | 9.6 | 0.00 | 0.00 | 0.00 | 42 | 509.6 |
| 20260906175057 | 98 | 152 | 3.5 | 9.6 | 0.00 | 0.00 | 0.00 | 41 | 514.2 |
| 20260906174556 | 98 | 121 | 1.7 | 9.6 | 0.00 | 0.00 | 0.00 | 43 | 506.5 |
| 20260906173539 | 97 | 136 | 1.7 | 9.6 | 0.00 | 0.00 | 0.00 | 42 | 515.9 |
| 20260906173038 | 97 | 121 | 1.7 | 9.6 | 0.00 | 0.00 | 0.00 | 44 | 513.1 |
| 20260906172538 | 97 | 141 | 2.6 | 9.6 | 0.00 | 0.00 | 0.00 | 43 | 512.3 |
| 20260906172038 | 98 | 137 | 3.5 | 9.6 | 0.00 | 0.00 | 0.00 | 42 | 480.4 |
| 20260906171537 | 98 | 79 | 1.7 | 9.6 | 0.00 | 0.00 | 0.00 | 43 | 440.5 |
| 20260906171036 | 97 | 129 | 1.7 | 9.6 | 0.00 | 0.00 | 0.00 | 44 | 498.0 |
| 20260906170020 | 97 | 82 | 0.9 | 9.6 | 0.00 | 0.00 | 0.00 | 43 | 514.9 |
| 20260906165519 | 97 | 191 | 0.9 | 9.6 | 0.00 | 0.00 | 0.00 | 44 | 546.9 |
| 20260906165018 | 97 | 54 | 1.7 | 9.6 | 0.00 | 0.00 | 0.00 | 45 | 442.4 |
| 20260906164517 | 97 | 122 | 3.5 | 9.6 | 0.00 | 0.00 | 0.00 | 44 | 518.7 |
| 20260906164016 | 97 | 95 | 0.9 | 9.6 | 0.00 | 0.00 | 0.00 | 47 | 524.6 |
| 20260906163515 | 97 | 166 | 0.9 | 9.6 | 0.00 | 0.00 | 0.00 | 47 | 600.8 |
| 20260906163014 | 96 | 120 | 2.6 | 9.6 | 0.00 | 0.00 | 0.00 | 47 | 478.6 |
| 20260906162514 | 96 | 77 | 0.9 | 9.6 | 0.00 | 0.00 | 0.00 | 47 | 473.6 |
| 20260906162013 | 96 | 124 | 2.6 | 9.6 | 0.00 | 0.00 | 0.00 | 47 | 485.9 |
| 20260906160956 | 95 | 120 | 1.7 | 9.6 | 0.00 | 0.00 | 0.00 | 49 | 436.2 |
| 20260906160456 | 95 | 57 | 0.9 | 9.6 | 0.00 | 0.00 | 0.00 | 49 | 370.5 |
| 20260906155955 | 95 | 22 | 0.9 | 9.6 | 0.00 | 0.00 | 0.00 | 50 | 387.5 |
| 20260906155454 | 94 | 132 | 0.9 | 9.6 | 0.00 | 0.00 | 0.00 | 51 | 443.5 |
| 20260906154438 | 93 | 43 | 2.6 | 9.6 | 0.00 | 0.00 | 0.00 | 53 | 428.6 |
| 20260906151843 | 91 | 109 | 3.5 | 9.6 | 0.00 | 0.00 | 0.00 | 54 | 471.2 |
| 20260906150826 | 91 | 156 | 2.6 | 9.6 | 0.00 | 0.00 | 0.00 | 54 | 524.7 |
| 20260906150325 | 91 | 115 | 2.6 | 9.6 | 0.00 | 0.00 | 0.00 | 54 | 473.1 |
| 20260906145824 | 90 | 98 | 2.6 | 9.6 | 0.00 | 0.00 | 0.00 | 55 | 458.8 |
| 20260906145323 | 90 | 110 | 2.6 | 9.6 | 0.00 | 0.00 | 0.00 | 56 | 489.2 |
| 20260906144306 | 90 | 149 | 1.7 | 9.6 | 0.00 | 0.00 | 0.00 | 56 | 513.0 |
| 20260906143805 | 90 | 124 | 2.6 | 9.6 | 0.00 | 0.00 | 0.00 | 56 | 447.7 |
| 20260906143304 | 89 | 99 | 1.7 | 9.6 | 0.00 | 0.00 | 0.00 | 57 | 407.3 |
| 20260906142804 | 89 | 66 | 2.6 | 9.6 | 0.00 | 0.00 | 0.00 | 58 | 394.9 |
| 20260906142306 | 89 | 66 | 1.7 | 9.6 | 0.00 | 0.00 | 0.00 | 59 | 375.8 |
| 20260906141802 | 88 | 97 | 1.7 | 9.6 | 0.00 | 0.00 | 0.00 | 60 | 371.6 |
| 20260906141302 | 88 | 64 | 0.9 | 9.6 | 0.00 | 0.00 | 0.00 | 62 | 346.6 |
| 20260906135729 | 86 | 64 | 0.9 | 9.6 | 0.00 | 0.00 | 0.00 | 65 | 307.1 |
| 20260906135228 | 86 | 43 | 0.9 | 9.6 | 0.00 | 0.00 | 0.00 | 66 | 292.1 |
| 20260906134726 | 85 | 49 | 1.7 | 9.6 | 0.00 | 0.00 | 0.00 | 68 | 288.0 |
| 20260906134225 | 84 | 33 | 1.7 | 9.6 | 0.00 | 0.00 | 0.00 | 69 | 273.1 |
| 20260906133724 | 84 | 71 | 1.7 | 9.6 | 0.00 | 0.00 | 0.00 | 70 | 294.6 |
| 20260906133223 | 83 | 37 | 0.9 | 9.6 | 0.00 | 0.00 | 0.00 | 71 | 266.3 |
| 20260906132723 | 82 | 30 | 0.9 | 9.6 | 0.00 | 0.00 | 0.00 | 72 | 266.6 |
| 20260906132222 | 81 | 47 | 0.9 | 9.6 | 0.00 | 0.00 | 0.00 | 73 | 288.2 |
| 20260906131205 | 80 | 29 | 0.9 | 9.6 | 0.00 | 0.00 | 0.00 | 76 | 256.1 |
| 20260906130704 | 79 | 36 | 0.9 | 9.6 | 0.00 | 0.00 | 0.00 | 78 | 263.3 |
| 20260906130204 | 78 | 36 | 0.9 | 9.6 | 0.00 | 0.00 | 0.00 | 79 | 263.5 |
| 20260906125147 | 77 | 27 | 0.9 | 9.6 | 0.00 | 0.00 | 0.00 | 81 | 253.6 |
| 20260906124646 | 77 | 31 | 1.7 | 9.6 | 0.00 | 0.00 | 0.00 | 81 | 268.6 |
| 20260906124145 | 76 | 36 | 1.7 | 9.6 | 0.00 | 0.00 | 0.00 | 82 | 289.9 |
| 20260906123129 | 76 | 49 | 0.0 | 9.6 | 0.00 | 0.00 | 0.00 | 82 | 300.8 |
| 20260906122629 | 76 | 49 | 0.0 | 9.6 | 0.00 | 0.00 | 0.00 | 82 | 300.6 |
| 20260906122128 | 75 | 49 | 0.0 | 9.6 | 0.00 | 0.00 | 0.00 | 82 | 300.7 |
| 20260906121627 | 75 | 49 | 0.0 | 9.6 | 0.00 | 0.00 | 0.00 | 82 | 300.7 |
| 20260906121126 | 75 | 49 | 0.0 | 9.6 | 0.00 | 0.00 | 0.00 | 81 | 300.6 |
| 20260906120625 | 76 | 49 | 0.0 | 9.6 | 0.00 | 0.00 | 0.00 | 81 | 300.7 |
| 20260906120124 | 76 | 49 | 0.0 | 9.6 | 0.00 | 0.00 | 0.00 | 81 | 300.7 |
| 20260906115623 | 76 | 49 | 0.0 | 9.6 | 0.00 | 0.00 | 0.00 | 81 | 300.7 |
| 20260906114607 | 76 | 49 | 0.0 | 9.6 | 0.00 | 0.00 | 0.00 | 80 | 300.3 |
| 20260906114106 | 76 | 49 | 0.0 | 9.6 | 0.00 | 0.00 | 0.00 | 80 | 300.3 |
| 20260906113049 | 76 | 49 | 0.0 | 9.6 | 0.00 | 0.00 | 0.00 | 80 | 300.4 |
| 20260906111518 | 76 | 49 | 0.0 | 9.6 | 0.00 | 0.00 | 0.00 | 79 | 300.2 |
| 20260906111017 | 77 | 49 | 0.0 | 9.6 | 0.00 | 0.00 | 0.00 | 79 | 300.2 |
| 20260906110001 | 77 | 49 | 0.0 | 9.6 | 0.00 | 0.00 | 0.00 | 78 | 299.9 |
| 20260906105500 | 77 | 49 | 0.0 | 9.6 | 0.00 | 0.00 | 0.00 | 78 | 300.1 |
| 20260906105000 | 77 | 49 | 0.0 | 9.6 | 0.00 | 0.00 | 0.00 | 78 | 300.3 |
| 20260906104459 | 77 | 49 | 0.0 | 9.6 | 0.00 | 0.00 | 0.00 | 77 | 300.3 |
| 20260906103959 | 77 | 49 | 0.0 | 9.6 | 0.00 | 0.00 | 0.00 | 77 | 300.2 |
| 20260906103458 | 77 | 49 | 0.0 | 9.6 | 0.00 | 0.00 | 0.00 | 77 | 300.2 |
| 20260906102957 | 77 | 49 | 0.0 | 9.6 | 0.00 | 0.00 | 0.00 | 77 | 300.2 |
| 20260906102456 | 77 | 49 | 0.0 | 9.6 | 0.00 | 0.00 | 0.00 | 77 | 300.3 |
| 20260906101439 | 78 | 49 | 0.0 | 9.6 | 0.00 | 0.00 | 0.00 | 76 | 300.1 |
| 20260906100938 | 78 | 49 | 0.0 | 9.6 | 0.00 | 0.00 | 0.00 | 76 | 300.2 |
| 20260906100437 | 78 | 49 | 0.0 | 9.6 | 0.00 | 0.00 | 0.00 | 75 | 300.1 |
| 20260906095936 | 78 | 49 | 0.0 | 9.6 | 0.00 | 0.00 | 0.00 | 75 | 300.1 |
| 20260906095435 | 79 | 49 | 0.0 | 9.6 | 0.00 | 0.00 | 0.00 | 75 | 300.2 |
| 20260906094934 | 79 | 49 | 0.0 | 9.6 | 0.00 | 0.00 | 0.00 | 75 | 300.2 |
| 20260906093917 | 79 | 49 | 0.0 | 9.6 | 0.00 | 0.00 | 0.00 | 74 | 300.2 |
| 20260906093416 | 79 | 49 | 0.0 | 9.6 | 0.00 | 0.00 | 0.00 | 74 | 300.2 |
| 20260906092915 | 80 | 49 | 0.0 | 9.6 | 0.00 | 0.00 | 0.00 | 73 | 300.2 |
| 20260906092414 | 80 | 49 | 0.0 | 9.6 | 0.00 | 0.00 | 0.00 | 72 | 300.3 |
| 20260906091913 | 80 | 49 | 0.0 | 9.6 | 0.00 | 0.00 | 0.00 | 72 | 300.2 |
| 20260906091413 | 80 | 49 | 0.0 | 9.6 | 0.00 | 0.00 | 0.00 | 72 | 300.3 |
| 20260906090912 | 80 | 49 | 0.0 | 9.6 | 0.00 | 0.00 | 0.00 | 72 | 300.3 |
| 20260906090412 | 80 | 49 | 0.0 | 9.6 | 0.00 | 0.00 | 0.00 | 72 | 300.5 |
| 20260906085912 | 80 | 49 | 0.0 | 9.6 | 0.00 | 0.00 | 0.00 | 71 | 300.7 |
| 20260906085411 | 80 | 49 | 0.0 | 9.6 | 0.00 | 0.00 | 0.00 | 71 | 300.7 |
| 20260906084910 | 80 | 49 | 0.0 | 9.6 | 0.00 | 0.00 | 0.00 | 71 | 300.6 |
| 20260906084409 | 80 | 49 | 0.0 | 9.6 | 0.00 | 0.00 | 0.00 | 71 | 300.3 |
| 20260906083909 | 80 | 49 | 0.0 | 9.6 | 0.00 | 0.00 | 0.00 | 71 | 300.1 |
| 20260906083408 | 80 | 49 | 0.0 | 9.6 | 0.00 | 0.00 | 0.00 | 71 | 300.0 |
| 20260906082907 | 80 | 49 | 0.0 | 9.6 | 0.00 | 0.00 | 0.00 | 71 | 300.0 |
| 20260906082406 | 80 | 49 | 0.0 | 9.6 | 0.00 | 0.00 | 0.00 | 71 | 299.9 |
| 20260906081905 | 80 | 49 | 0.0 | 9.6 | 0.00 | 0.00 | 0.00 | 72 | 299.8 |
| 20260906081404 | 80 | 49 | 0.0 | 9.6 | 0.00 | 0.00 | 0.00 | 71 | 299.6 |
| 20260906080347 | 81 | 49 | 0.0 | 9.6 | 0.00 | 0.00 | 0.00 | 70 | 299.8 |
| 20260906075846 | 81 | 49 | 0.0 | 9.6 | 0.00 | 0.00 | 0.00 | 70 | 299.9 |
| 20260906075345 | 81 | 49 | 0.0 | 9.6 | 0.00 | 0.00 | 0.00 | 70 | 299.9 |
| 20260906074844 | 81 | 49 | 0.0 | 9.6 | 0.00 | 0.00 | 0.00 | 70 | 299.7 |
| 20260906073837 | 81 | 49 | 0.0 | 9.6 | 0.00 | 0.00 | 0.00 | 69 | 299.6 |
| 20260906073336 | 81 | 49 | 0.0 | 9.6 | 0.00 | 0.00 | 0.00 | 69 | 299.3 |
| 20260906072835 | 81 | 49 | 0.0 | 9.6 | 0.00 | 0.00 | 0.00 | 69 | 299.3 |
| 20260906072334 | 81 | 49 | 0.9 | 9.6 | 0.00 | 0.00 | 0.00 | 69 | 299.2 |
| 20260906071318 | 81 | 49 | 0.9 | 9.6 | 0.00 | 0.00 | 0.00 | 68 | 299.1 |
| 20260906070817 | 82 | 49 | 0.9 | 9.6 | 0.00 | 0.00 | 0.00 | 68 | 298.6 |
| 20260906070316 | 82 | 49 | 0.9 | 9.6 | 0.00 | 0.00 | 0.00 | 68 | 297.7 |
| 20260906065815 | 82 | 49 | 0.0 | 9.6 | 0.00 | 0.00 | 0.00 | 68 | 295.7 |
| 20260906065314 | 82 | 49 | 0.9 | 9.6 | 0.00 | 0.00 | 0.00 | 68 | 291.7 |
| 20260906064814 | 82 | 49 | 0.0 | 9.6 | 0.00 | 0.00 | 0.00 | 67 | 283.8 |
| 20260906064313 | 82 | 47 | 0.0 | 9.6 | 0.00 | 0.00 | 0.00 | 67 | 266.8 |
| 20260906063256 | 82 | 34 | 0.9 | 9.6 | 0.00 | 0.00 | 0.00 | 67 | 256.6 |
| 20260906062754 | 82 | 34 | 0.0 | 9.6 | 0.00 | 0.00 | 0.00 | 67 | 256.5 |
| 20260906061222 | 82 | 34 | 0.9 | 9.6 | 0.00 | 0.00 | 0.00 | 67 | 255.4 |
| 20260906060721 | 82 | 34 | 0.0 | 9.6 | 0.00 | 0.00 | 0.00 | 66 | 255.3 |
| 20260906060220 | 82 | 34 | 0.0 | 9.6 | 0.00 | 0.00 | 0.00 | 67 | 255.2 |
| 20260906055718 | 83 | 34 | 0.0 | 9.6 | 0.00 | 0.00 | 0.00 | 66 | 254.8 |
| 20260906055217 | 83 | 34 | 0.0 | 9.6 | 0.00 | 0.00 | 0.00 | 66 | 253.8 |
| 20260906054717 | 82 | 34 | 0.0 | 9.6 | 0.00 | 0.00 | 0.00 | 66 | 251.7 |
| 20260906053659 | 82 | 30 | 0.0 | 9.6 | 0.00 | 0.00 | 0.00 | 66 | 247.2 |
| 20260906053158 | 83 | 30 | 0.0 | 9.6 | 0.00 | 0.00 | 0.00 | 66 | 250.8 |
| 20260906052658 | 83 | 34 | 0.9 | 9.6 | 0.00 | 0.00 | 0.00 | 66 | 258.1 |
| 20260906052158 | 83 | 35 | 0.9 | 9.6 | 0.00 | 0.00 | 0.00 | 65 | 259.7 |
| 20260906051657 | 83 | 34 | 0.9 | 9.6 | 0.00 | 0.00 | 0.00 | 65 | 262.4 |
| 20260906051156 | 83 | 37 | 0.9 | 9.6 | 0.00 | 0.00 | 0.00 | 65 | 266.5 |
| 20260906050655 | 83 | 38 | 0.0 | 9.6 | 0.00 | 0.00 | 0.00 | 65 | 267.0 |
| 20260906050154 | 83 | 38 | 0.0 | 9.6 | 0.00 | 0.00 | 0.00 | 65 | 266.9 |
| 20260906045653 | 83 | 38 | 0.0 | 9.6 | 0.00 | 0.00 | 0.00 | 65 | 266.8 |
| 20260906045152 | 83 | 38 | 0.0 | 9.6 | 0.00 | 0.00 | 0.00 | 64 | 266.6 |
| 20260906044650 | 83 | 38 | 0.0 | 9.6 | 0.00 | 0.00 | 0.00 | 64 | 266.5 |
| 20260906044150 | 83 | 38 | 0.0 | 9.6 | 0.00 | 0.00 | 0.00 | 65 | 266.2 |
| 20260906042626 | 83 | 38 | 0.0 | 9.6 | 0.00 | 0.00 | 0.00 | 64 | 265.5 |
| 20260906042126 | 84 | 38 | 0.0 | 9.6 | 0.00 | 0.00 | 0.00 | 64 | 265.7 |
| 20260906041625 | 84 | 38 | 0.0 | 9.6 | 0.00 | 0.00 | 0.00 | 64 | 265.8 |
| 20260906041123 | 84 | 38 | 0.0 | 9.6 | 0.00 | 0.00 | 0.00 | 63 | 265.8 |
| 20260906040623 | 84 | 38 | 0.0 | 9.6 | 0.00 | 0.00 | 0.00 | 63 | 265.4 |
| 20260906040122 | 84 | 38 | 0.0 | 9.6 | 0.00 | 0.00 | 0.00 | 63 | 264.6 |
| 20260906035622 | 85 | 38 | 0.9 | 9.6 | 0.00 | 0.00 | 0.00 | 62 | 264.1 |
| 20260906035121 | 85 | 38 | 0.0 | 9.6 | 0.00 | 0.00 | 0.00 | 61 | 262.3 |
| 20260906034620 | 85 | 38 | 0.0 | 9.6 | 0.00 | 0.00 | 0.00 | 59 | 256.5 |
| 20260906034119 | 85 | 31 | 0.0 | 9.6 | 0.00 | 0.00 | 0.00 | 59 | 246.6 |
| 20260906033103 | 85 | 31 | 0.0 | 9.6 | 0.00 | 0.00 | 0.00 | 61 | 246.9 |
| 20260906032603 | 86 | 31 | 0.0 | 9.6 | 0.00 | 0.00 | 0.00 | 61 | 247.3 |
| 20260906032102 | 86 | 31 | 0.0 | 9.6 | 0.00 | 0.00 | 0.00 | 60 | 247.8 |
| 20260906031046 | 86 | 31 | 0.0 | 9.6 | 0.00 | 0.00 | 0.00 | 59 | 251.3 |
| 20260906030546 | 86 | 31 | 0.0 | 9.6 | 0.00 | 0.00 | 0.00 | 59 | 255.2 |
| 20260906030045 | 87 | 31 | 0.0 | 9.6 | 0.00 | 0.00 | 0.00 | 58 | 262.5 |
| 20260906025544 | 87 | 31 | 0.0 | 9.6 | 0.00 | 0.00 | 0.00 | 58 | 276.3 |
| 20260906025043 | 87 | 31 | 0.0 | 9.6 | 0.00 | 0.00 | 0.00 | 56 | 303.2 |
| 20260906024026 | 88 | 48 | 2.6 | 9.6 | 0.00 | 0.00 | 0.00 | 57 | 471.0 |
| 20260906023525 | 88 | 126 | 0.0 | 9.6 | 0.00 | 0.00 | 0.00 | 54 | 529.9 |
| 20260906023024 | 88 | 126 | 0.0 | 9.6 | 0.00 | 0.00 | 0.00 | 55 | 529.8 |
| 20260906022008 | 89 | 126 | 0.0 | 9.6 | 0.00 | 0.00 | 0.00 | 54 | 530.1 |
| 20260906021507 | 89 | 126 | 0.0 | 9.6 | 0.00 | 0.00 | 0.00 | 53 | 529.7 |
| 20260906021006 | 89 | 126 | 0.0 | 9.6 | 0.00 | 0.00 | 0.00 | 54 | 529.6 |
| 20260906020506 | 89 | 126 | 0.0 | 9.6 | 0.00 | 0.00 | 0.00 | 53 | 529.8 |
| 20260906020005 | 89 | 126 | 0.0 | 9.6 | 0.00 | 0.00 | 0.00 | 52 | 529.7 |
| 20260906015504 | 89 | 126 | 0.0 | 9.6 | 0.00 | 0.00 | 0.00 | 52 | 529.5 |
| 20260906015003 | 90 | 126 | 0.0 | 9.6 | 0.00 | 0.00 | 0.00 | 52 | 529.3 |
| 20260906013946 | 90 | 126 | 0.0 | 9.6 | 0.00 | 0.00 | 0.00 | 52 | 528.7 |
| 20260906013445 | 91 | 126 | 0.0 | 9.6 | 0.00 | 0.00 | 0.00 | 52 | 528.3 |
| 20260906012944 | 91 | 126 | 0.0 | 9.6 | 0.00 | 0.00 | 0.00 | 50 | 528.2 |
| 20260906011937 | 92 | 126 | 0.0 | 9.6 | 0.00 | 0.00 | 0.00 | 50 | 527.8 |
| 20260906011436 | 92 | 126 | 0.0 | 9.6 | 0.00 | 0.00 | 0.00 | 49 | 527.8 |
| 20260906010935 | 93 | 126 | 0.0 | 9.6 | 0.00 | 0.00 | 0.00 | 49 | 527.6 |
| 20260906010434 | 93 | 126 | 0.0 | 9.6 | 0.00 | 0.00 | 0.00 | 49 | 527.6 |
| 20260906005933 | 94 | 126 | 0.0 | 9.6 | 0.00 | 0.00 | 0.00 | 49 | 527.4 |
| 20260906005432 | 94 | 126 | 0.0 | 9.6 | 0.00 | 0.00 | 0.00 | 47 | 527.2 |
| 20260906004931 | 95 | 126 | 0.0 | 9.6 | 0.00 | 0.00 | 0.00 | 46 | 527.2 |
| 20260906004430 | 95 | 126 | 0.0 | 9.6 | 0.00 | 0.00 | 0.00 | 46 | 527.3 |
| 20260906002857 | 96 | 126 | 0.0 | 9.6 | 0.00 | 0.00 | 0.00 | 44 | 527.4 |
| 20260906002356 | 96 | 126 | 0.0 | 9.6 | 0.00 | 0.00 | 0.00 | 44 | 527.2 |
| 20260906001339 | 97 | 126 | 0.9 | 9.6 | 0.00 | 0.00 | 0.00 | 43 | 527.6 |
| 20260906000838 | 97 | 126 | 0.0 | 9.6 | 0.00 | 0.00 | 0.00 | 42 | 528.9 |
| 20260906000337 | 98 | 126 | 0.9 | 9.6 | 0.00 | 0.00 | 0.00 | 42 | 531.5 |
| 20260905235836 | 98 | 126 | 0.9 | 9.6 | 0.00 | 0.00 | 0.00 | 41 | 537.0 |
| 20260905234819 | 99 | 136 | 1.7 | 9.6 | 0.00 | 0.00 | 0.00 | 40 | 569.1 |
| 20260905234318 | 99 | 143 | 0.0 | 9.6 | 0.00 | 0.00 | 0.00 | 39 | 585.7 |
| 20260905233817 | 99 | 147 | 0.9 | 9.6 | 0.00 | 0.00 | 0.00 | 39 | 597.3 |
| 20260905232800 | 99 | 153 | 0.9 | 9.6 | 0.00 | 0.00 | 0.00 | 38 | 607.0 |
| 20260905231227 | 100 | 159 | 0.0 | 9.6 | 0.00 | 0.00 | 0.00 | 39 | 579.8 |
| 20260905230726 | 100 | 145 | 0.9 | 9.6 | 0.00 | 0.00 | 0.00 | 38 | 531.4 |
| 20260905230225 | 100 | 90 | 0.9 | 9.6 | 0.00 | 0.00 | 0.00 | 38 | 500.1 |
| 20260905225209 | 100 | 164 | 2.6 | 9.6 | 0.00 | 0.00 | 0.00 | 38 | 591.9 |
| 20260905223636 | 100 | 205 | 0.9 | 9.6 | 0.00 | 0.00 | 0.00 | 37 | 780.7 |
| 20260905223135 | 100 | 215 | 2.6 | 9.6 | 0.00 | 0.00 | 0.00 | 37 | 778.3 |
| 20260905222634 | 100 | 245 | 0.9 | 9.6 | 0.00 | 0.00 | 0.00 | 38 | 779.7 |
| 20260905222133 | 100 | 235 | 2.6 | 9.6 | 0.00 | 0.00 | 0.00 | 37 | 702.0 |
| 20260905221116 | 100 | 208 | 1.7 | 9.6 | 0.00 | 0.00 | 0.00 | 37 | 613.8 |
| 20260905220615 | 100 | 132 | 3.5 | 9.6 | 0.00 | 0.00 | 0.00 | 38 | 529.1 |
| 20260905220114 | 100 | 85 | 0.9 | 9.6 | 0.00 | 0.00 | 0.00 | 38 | 570.9 |
| 20260905215613 | 100 | 188 | 2.6 | 9.6 | 0.00 | 0.00 | 0.00 | 39 | 670.2 |
| 20260905215113 | 100 | 148 | 1.7 | 9.6 | 0.00 | 0.00 | 0.00 | 38 | 672.0 |
| 20260905214053 | 99 | 179 | 1.7 | 9.6 | 0.00 | 0.00 | 0.00 | 38 | 636.7 |
| 20260905213552 | 99 | 129 | 1.7 | 9.6 | 0.00 | 0.00 | 0.00 | 38 | 572.1 |
| 20260905213051 | 100 | 149 | 1.7 | 9.6 | 0.00 | 0.00 | 0.00 | 38 | 587.0 |
| 20260905212034 | 100 | 121 | 1.7 | 9.6 | 0.00 | 0.00 | 0.00 | 37 | 578.0 |
| 20260905211533 | 100 | 171 | 3.5 | 9.6 | 0.00 | 0.00 | 0.00 | 37 | 590.2 |
| 20260905210516 | 100 | 146 | 1.7 | 9.6 | 0.00 | 0.00 | 0.00 | 38 | 592.7 |
| 20260905210015 | 100 | 136 | 2.6 | 9.6 | 0.00 | 0.00 | 0.00 | 37 | 586.4 |
| 20260905205514 | 101 | 137 | 2.6 | 9.6 | 0.00 | 0.00 | 0.00 | 38 | 548.6 |
| 20260905205013 | 101 | 137 | 0.0 | 9.6 | 0.00 | 0.00 | 0.00 | 37 | 553.8 |
| 20260905204512 | 101 | 176 | 1.7 | 9.6 | 0.00 | 0.00 | 0.00 | 37 | 552.5 |
| 20260905204012 | 101 | 117 | 0.9 | 9.6 | 0.00 | 0.00 | 0.00 | 39 | 689.9 |
| 20260905203512 | 101 | 234 | 1.7 | 9.6 | 0.00 | 0.00 | 0.00 | 37 | 696.5 |
| 20260905203012 | 100 | 157 | 1.7 | 9.6 | 0.00 | 0.00 | 0.00 | 38 | 668.6 |
| 20260905202511 | 100 | 154 | 3.5 | 9.6 | 0.00 | 0.00 | 0.00 | 37 | 648.7 |
| 20260905202010 | 100 | 213 | 2.6 | 9.6 | 0.00 | 0.00 | 0.00 | 37 | 629.6 |
| 20260905201509 | 100 | 129 | 1.7 | 9.6 | 0.00 | 0.00 | 0.00 | 38 | 615.4 |
| 20260905201009 | 100 | 170 | 2.6 | 9.6 | 0.00 | 0.00 | 0.00 | 38 | 636.7 |
| 20260905195953 | 100 | 147 | 2.6 | 9.6 | 0.00 | 0.00 | 0.00 | 38 | 625.0 |
| 20260905195452 | 100 | 134 | 2.6 | 9.6 | 0.00 | 0.00 | 0.00 | 38 | 669.1 |
| 20260905194951 | 100 | 225 | 2.6 | 9.6 | 0.00 | 0.00 | 0.00 | 39 | 719.5 |
| 20260905194450 | 100 | 194 | 0.9 | 9.6 | 0.00 | 0.00 | 0.00 | 39 | 629.8 |
| 20260905193949 | 100 | 140 | 3.5 | 9.6 | 0.00 | 0.00 | 0.00 | 38 | 588.6 |
| 20260905193448 | 99 | 124 | 3.5 | 9.6 | 0.00 | 0.00 | 0.00 | 39 | 611.5 |
| 20260905192441 | 99 | 171 | 0.0 | 9.6 | 0.00 | 0.00 | 0.00 | 41 | 670.1 |
| 20260905191940 | 99 | 171 | 0.0 | 9.6 | 0.00 | 0.00 | 0.00 | 39 | 685.7 |
| 20260905191440 | 99 | 242 | 0.9 | 9.6 | 0.00 | 0.00 | 0.00 | 40 | 683.3 |
| 20260905190939 | 99 | 239 | 0.9 | 9.6 | 0.00 | 0.00 | 0.00 | 41 | 502.3 |
| 20260905190438 | 99 | 76 | 0.0 | 9.6 | 0.00 | 0.00 | 0.00 | 41 | 407.3 |
| 20260905185937 | 98 | 42 | 0.9 | 9.6 | 0.00 | 0.00 | 0.00 | 42 | 427.9 |
| 20260905184921 | 98 | 131 | 1.7 | 9.6 | 0.00 | 0.00 | 0.00 | 40 | 536.5 |
| 20260905184420 | 99 | 113 | 1.7 | 9.6 | 0.00 | 0.00 | 0.00 | 41 | 550.6 |
| 20260905183404 | 99 | 135 | 3.5 | 9.6 | 0.00 | 0.00 | 0.00 | 42 | 537.2 |